Weather History for KTTA - October, 2011

Change the Weather History Date:

Wednesday, October 12, 2011

  Actual Average (KRDU) Record (KRDU)
Temperature  
Mean Temperature 70 °F 62 °F  
Max Temperature 77 °F 74 °F 88 °F (2010)
Min Temperature 62 °F 51 °F 29 °F (1964)
Degree Days  
Heating Degree Days 0 4  
Month to date heating degree days 39  
Since 1 July heating degree days 60  
Cooling Degree Days 4 2  
Month to date cooling degree days 32  
Year to date cooling degree days 1700  
Growing Degree Days 20 (Base 50)    
Moisture  
Dew Point 66 °F    
Average Humidity 95    
Maximum Humidity 100    
Minimum Humidity 74    
Precipitation  
Precipitation 0.00 in 0.11 in 0.54 in (1942)
Month to date precipitation 1.32  
Year to date precipitation 35.22  
Sea Level Pressure  
Sea Level Pressure 29.84 in    
Wind  
Wind Speed 2 mph (NNE)    
Max Wind Speed 5 mph    
Max Gust Speed -    
Visibility 6 miles    
Events Rain    
T = Trace of Precipitation, MM = Missing Value Source: NWS Daily Summary

Daily Weather History Graph

Daily Weather History Graph

Search for Another Location

Airport or City:

Trip Planner

Search our weather history database for the weather conditions in past years. The results will help you decide how hot, cold, wet, or windy it might be!

Date:

Astronomy

Oct. 12, 2011 Rise Set
Actual Time 7:20 AM EDT 6:45 PM EDT
Civil Twilight 6:54 AM EDT 7:10 PM EDT
Nautical Twilight 6:24 AM EDT 7:40 PM EDT
Astronomical Twilight 5:55 AM EDT 8:09 PM EDT
Moon 6:50 PM EDT (10/12) 7:49 AM EDT (10/12)
Length of Visible Light 12h 16m
Length of Day
11h 25m
Full, 100% of the Moon is Illuminated
Oct 12
Full
Oct 19
Last Quarter
Oct 26
New
Nov 2
First Quarter
Nov 10
Full

Hourly Weather History & Observations

Time (EDT) Temp. Dew Point Humidity Pressure Visibility Wind Dir Wind Speed Gust Speed Precip Events Conditions
12:15 AM 62.6 °F 62.6 °F 100% 29.92 in 10.0 mi NNE 3.5 mph - N/A   Overcast
12:35 AM 62.6 °F 62.6 °F 100% 29.92 in 10.0 mi NNE 3.5 mph - N/A   Overcast
12:55 AM 62.6 °F 62.6 °F 100% 29.91 in 10.0 mi NNE 3.5 mph - N/A   Overcast
1:15 AM 62.6 °F 62.6 °F 100% 29.90 in 10.0 mi North 3.5 mph - N/A   Overcast
1:35 AM 62.6 °F 62.6 °F 100% 29.90 in 10.0 mi North 4.6 mph - N/A   Overcast
1:55 AM 62.6 °F 62.6 °F 100% 29.90 in 10.0 mi NNE 3.5 mph - N/A   Overcast
2:15 AM 62.6 °F 62.6 °F 100% 29.89 in 10.0 mi NNE 3.5 mph - N/A   Overcast
2:35 AM 62.6 °F 62.6 °F 100% 29.89 in 10.0 mi NNE 3.5 mph - N/A Rain Light Rain
2:55 AM 62.6 °F 62.6 °F 100% 29.88 in 7.0 mi NE 3.5 mph - N/A Rain Light Rain
3:15 AM 62.6 °F 62.6 °F 100% 29.88 in 7.0 mi NNE 3.5 mph - N/A   Drizzle
3:35 AM 62.6 °F 62.6 °F 100% 29.87 in 10.0 mi NNE 3.5 mph - N/A   Overcast
3:55 AM 62.6 °F 62.6 °F 100% 29.86 in 5.0 mi NE 3.5 mph - N/A   Overcast
4:15 AM 62.6 °F 62.6 °F 100% 29.86 in 4.0 mi Calm Calm - N/A   Overcast
4:35 AM 62.6 °F 62.6 °F 100% 29.85 in 4.0 mi NNE 3.5 mph - N/A   Overcast
4:55 AM 62.6 °F 62.6 °F 100% 29.84 in 4.0 mi Calm Calm - N/A   Overcast
5:15 AM 62.6 °F 62.6 °F 100% 29.85 in 5.0 mi Calm Calm - N/A   Overcast
5:35 AM 62.6 °F 62.6 °F 100% 29.85 in 5.0 mi Calm Calm - N/A   Overcast
5:55 AM 62.6 °F 62.6 °F 100% 29.85 in 5.0 mi Calm Calm - N/A   Overcast
6:15 AM 62.6 °F 62.6 °F 100% 29.85 in 5.0 mi Calm Calm - N/A   Overcast
6:35 AM 62.6 °F 62.6 °F 100% 29.84 in 3.0 mi NE 3.5 mph - N/A   Overcast
7:15 AM 62.6 °F 62.6 °F 100% 29.85 in 3.0 mi Calm Calm - N/A Rain Light Rain
7:35 AM 62.6 °F 62.6 °F 100% 29.86 in 2.5 mi Calm Calm - N/A   Overcast
7:55 AM 62.6 °F 62.6 °F 100% 29.85 in 1.0 mi ENE 4.6 mph - N/A Rain Rain
8:15 AM 62.6 °F 62.6 °F 100% 29.87 in 1.5 mi Calm Calm - N/A Rain Light Rain
8:35 AM 64.4 °F 64.4 °F 100% 29.86 in 1.5 mi Calm Calm - N/A   Overcast
8:55 AM 64.4 °F 64.4 °F 100% 29.87 in 1.8 mi Calm Calm - N/A   Overcast
9:15 AM 64.4 °F 64.4 °F 100% 29.86 in 1.8 mi Calm Calm - N/A   Light Drizzle
9:35 AM 64.4 °F 64.4 °F 100% 29.87 in 3.0 mi Calm Calm - N/A   Overcast
9:55 AM 66.2 °F 66.2 °F 100% 29.85 in 3.0 mi Calm Calm - N/A   Overcast
10:15 AM 66.2 °F 66.2 °F 100% 29.85 in 1.5 mi Calm Calm - N/A   Overcast
10:35 AM 66.2 °F 66.2 °F 100% 29.85 in 2.5 mi Calm Calm - N/A   Overcast
10:55 AM 68.0 °F 68.0 °F 100% 29.85 in 3.0 mi Calm Calm - N/A   Overcast
11:15 AM 68.0 °F 68.0 °F 100% 29.85 in 2.5 mi Calm Calm - N/A   Overcast
11:35 AM 68.0 °F 68.0 °F 100% 29.85 in 2.0 mi Calm Calm - N/A   Overcast
11:55 AM 69.8 °F 69.8 °F 100% 29.85 in 2.5 mi Calm Calm - N/A   Overcast
12:15 PM 69.8 °F 69.8 °F 100% 29.84 in 4.0 mi Calm Calm - N/A   Overcast
12:35 PM 69.8 °F 69.8 °F 100% 29.82 in 2.5 mi Calm Calm - N/A   Overcast
12:55 PM 69.8 °F 69.8 °F 100% 29.83 in 3.0 mi Calm Calm - N/A   Overcast
1:15 PM 71.6 °F 69.8 °F 94% 29.82 in 7.0 mi Calm Calm - N/A   Overcast
1:35 PM 71.6 °F 69.8 °F 94% 29.81 in 10.0 mi Calm Calm - N/A   Overcast
1:55 PM 73.4 °F 69.8 °F 88% 29.80 in 10.0 mi Calm Calm - N/A   Overcast
2:15 PM 75.2 °F 69.8 °F 83% 29.79 in 10.0 mi Calm Calm - N/A   Overcast
2:35 PM 75.2 °F 68.0 °F 78% 29.79 in 10.0 mi Calm Calm - N/A   Overcast
2:55 PM 77.0 °F 69.8 °F 78% 29.78 in 10.0 mi North 4.6 mph - N/A   Overcast
3:15 PM 75.2 °F 69.8 °F 83% 29.78 in 10.0 mi Calm Calm - N/A   Overcast
3:35 PM 77.0 °F 69.8 °F 78% 29.77 in 10.0 mi NNW 3.5 mph - N/A   Mostly Cloudy
3:55 PM 77.0 °F 68.0 °F 74% 29.77 in 10.0 mi Calm Calm - N/A   Scattered Clouds
4:15 PM 77.0 °F 68.0 °F 74% 29.77 in 10.0 mi Calm Calm - N/A   Scattered Clouds
4:35 PM 77.0 °F 69.8 °F 78% 29.77 in 10.0 mi ENE 3.5 mph - N/A   Scattered Clouds
4:55 PM 77.0 °F 68.0 °F 74% 29.77 in 10.0 mi Calm Calm - N/A   Scattered Clouds
5:15 PM 77.0 °F 69.8 °F 78% 29.77 in 10.0 mi Calm Calm - N/A   Scattered Clouds
5:35 PM 77.0 °F 69.8 °F 78% 29.77 in 10.0 mi Calm Calm - N/A   Mostly Cloudy
5:55 PM 77.0 °F 69.8 °F 78% 29.77 in 10.0 mi NNW 3.5 mph - N/A   Overcast
6:15 PM 77.0 °F 69.8 °F 78% 29.76 in 10.0 mi NNE 5.8 mph - N/A   Mostly Cloudy
6:35 PM 73.4 °F 69.8 °F 88% 29.77 in 10.0 mi Calm Calm - N/A   Mostly Cloudy
6:55 PM 73.4 °F 69.8 °F 88% 29.77 in 10.0 mi NW 3.5 mph - N/A   Overcast
7:15 PM 71.6 °F 69.8 °F 94% 29.77 in 10.0 mi Calm Calm - N/A   Overcast
7:35 PM 71.6 °F 69.8 °F 94% 29.77 in 10.0 mi Calm Calm - N/A   Overcast
7:55 PM 71.6 °F 69.8 °F 94% 29.77 in 10.0 mi Calm Calm - N/A   Overcast
8:15 PM 71.6 °F 69.8 °F 94% 29.78 in 7.0 mi Calm Calm - N/A Rain Light Rain
8:35 PM 71.6 °F 69.8 °F 94% 29.77 in 7.0 mi Calm Calm - N/A   Mostly Cloudy
8:55 PM 69.8 °F 69.8 °F 100% 29.77 in 4.0 mi Calm Calm - N/A   Scattered Clouds
9:15 PM 69.8 °F 69.8 °F 100% 29.78 in 3.0 mi Calm Calm - N/A   Mostly Cloudy
9:35 PM 69.8 °F 69.8 °F 100% 29.77 in 4.0 mi Calm Calm - N/A   Overcast
9:55 PM 69.8 °F 69.8 °F 100% 29.77 in 4.0 mi Calm Calm - N/A   Overcast
10:15 PM 69.8 °F 69.8 °F 100% 29.77 in 3.0 mi Calm Calm - N/A   Overcast
10:35 PM 69.8 °F 69.8 °F 100% 29.77 in 4.0 mi Calm Calm - N/A   Overcast
10:55 PM 69.8 °F 69.8 °F 100% 29.77 in 3.0 mi Calm Calm - N/A   Overcast
11:15 PM 69.8 °F 69.8 °F 100% 29.77 in 5.0 mi Calm Calm - N/A   Overcast
11:35 PM 69.8 °F 69.8 °F 100% 29.76 in 4.0 mi Calm Calm - N/A   Overcast
11:55 PM 69.8 °F 69.8 °F 100% 29.76 in 5.0 mi Calm Calm - N/A   Overcast